Theta_e
319 319 319 318 318 318 323 323 323 324 323 322 321 321 323 321 323 326 327 324 325 334 339 335 331 331 327 331 334 335 337 338 332 335 335 336 334 334 334 334 334 333 333
318 318 316 316 316 318 318 320 320 321 318 318 321 319 317 319 321 319 322 325 329 332 330 328 322 325 326 325 324 334 339 339 337 330 334 333 334 333 333 333 332 329 333
317 316 315 315 315 313 313 313 312 314 320 319 318 317 316 318 319 318 317 317 320 328 327 324 324 323 327 329 330 334 338 337 336 334 331 328 330 327 323 329 331 330 329
317 315 315 315 314 313 312 312 311 311 314 320 318 317 316 318 319 317 318 317 317 325 328 328 326 327 329 333 334 338 338 336 335 333 327 324 322 324 321 331 333 332 332
316 316 315 314 314 313 312 312 311 311 310 314 317 317 315 315 318 315 315 316 315 324 324 322 320 321 329 332 333 337 334 332 331 330 327 327 326 326 328 323 324 329 330
315 315 314 314 314 313 313 312 311 311 310 311 315 317 317 316 316 317 316 317 324 326 326 328 333 332 333 334 334 331 329 323 320 316 315 315 316 318 321 324 325 325 325
314 313 313 314 313 313 312 311 310 310 310 311 314 317 317 316 317 317 318 319 318 322 325 325 327 330 330 327 317 314 311 310 311 314 317 318 320 318 319 322 325 328 328
312 312 312 311 311 311 310 310 309 309 309 309 311 315 317 318 318 317 317 318 320 322 324 324 322 320 320 318 313 313 315 317 318 318 318 318 317 317 320 323 319 317 318
309 309 310 310 310 310 310 309 308 308 309 309 309 313 317 317 318 319 317 318 319 324 322 320 320 318 316 313 314 317 317 319 319 318 318 317 318 317 316 314 316 316 318
305 306 306 306 306 307 308 308 308 308 308 309 309 309 309 316 318 317 317 317 317 324 321 320 320 320 317 317 319 319 320 318 318 319 319 319 318 314 313 316 317 317 320
301 301 302 303 304 306 306 306 307 308 308 308 308 309 308 311 318 318 316 317 316 320 324 324 323 320 319 318 320 319 318 318 320 320 318 316 313 314 314 317 318 320 321
298 298 299 300 301 303 304 307 307 308 307 307 307 307 307 308 314 319 319 318 319 316 321 323 324 323 323 323 322 322 321 320 320 319 316 314 315 315 316 320 326 323 325
296 297 297 298 300 302 303 306 307 307 306 305 305 306 306 307 309 317 320 321 319 318 317 322 323 322 323 323 323 322 321 320 319 317 315 315 316 316 317 320 321 323 325
295 295 296 297 299 300 302 305 306 307 306 305 305 305 306 308 313 315 317 318 317 318 316 317 319 320 323 323 321 321 320 319 319 316 315 316 316 316 318 323 324 324 329
295 295 295 297 298 300 301 303 304 305 305 305 305 306 306 311 305 307 310 314 315 316 315 316 318 319 317 317 319 319 318 318 318 316 316 316 317 317 320 323 323 327 329
294 295 295 296 298 300 301 301 302 303 304 304 304 304 305 305 305 305 306 312 315 314 315 316 319 319 318 317 318 317 317 318 317 317 317 317 318 321 323 323 325 328 328
295 295 295 295 297 299 300 301 302 302 302 302 303 303 303 302 304 305 306 310 313 316 314 315 318 319 320 319 318 318 319 319 318 317 317 318 320 324 324 324 326 327 327
293 294 295 295 295 296 300 301 301 302 302 302 302 302 302 302 302 304 305 305 307 311 316 317 317 318 319 320 320 320 319 318 318 318 316 318 324 324 324 324 326 327 326
292 293 294 295 295 295 297 299 300 300 301 301 302 304 303 303 302 304 304 304 305 309 314 315 317 318 318 318 318 317 316 316 315 316 317 322 324 324 323 323 326 327 325
294 294 294 294 295 295 296 298 299 298 302 302 303 304 302 299 300 302 303 304 305 306 314 316 315 315 316 314 314 313 313 312 313 315 316 323 324 323 322 323 326 326 324
296 298 297 295 295 295 295 297 297 298 299 301 303 304 304 301 301 302 303 304 305 306 310 315 316 314 314 313 313 312 312 313 314 315 320 322 323 322 323 325 326 326 325
300 302 299 298 296 296 295 296 296 297 297 299 301 303 304 304 305 304 304 305 306 307 310 313 314 313 312 312 312 312 312 313 315 320 322 322 322 323 323 325 322 324 324
305 307 305 304 299 297 295 295 296 296 298 299 300 302 303 305 306 306 306 305 307 307 309 311 311 312 312 313 313 313 315 317 316 319 320 322 323 323 324 325 325 325 324
301 303 306 301 300 298 296 296 296 296 298 299 301 301 301 303 305 306 306 308 308 309 309 310 310 311 311 312 313 313 313 315 317 318 321 323 325 325 326 326 324 321 317
296 298 299 302 301 300 298 299 298 298 298 299 301 302 303 302 305 307 307 307 309 310 310 310 310 310 310 310 311 312 313 313 314 319 321 322 324 326 324 326 323 317 315
291 293 294 295 297 300 302 301 301 301 301 302 302 302 303 304 305 307 307 307 309 308 309 309 309 309 309 308 309 312 312 312 314 319 321 321 324 325 325 323 319 315 313
Wind_Speed
13 12 16 13 14 18 18 21 26 30 34 37 36 33 28 14 13 32 38 40 34 31 24 18 7 15 13 25 32 28 25 19 6 14 14 10 9 10 13 18 23 24 21
16 14 11 10 10 9 15 21 24 28 35 38 39 40 36 29 25 19 19 33 32 23 19 19 14 13 27 29 43 40 30 23 18 7 4 11 14 15 20 24 26 24 24
19 19 20 18 12 13 14 16 19 27 33 34 36 41 40 33 25 23 25 18 25 32 30 27 24 22 33 38 49 42 22 18 18 12 7 4 11 5 16 25 26 23 21
19 21 21 19 19 19 20 20 22 26 29 31 33 34 35 31 23 26 24 24 29 31 33 35 36 39 42 36 39 30 21 15 13 13 13 11 9 14 17 25 23 19 19
15 16 20 22 22 22 24 25 25 27 31 31 34 34 31 29 24 31 36 40 49 39 33 45 47 50 37 36 31 23 18 16 15 13 8 6 8 6 4 5 13 13 15
18 16 17 18 21 24 26 25 25 27 28 32 31 35 30 33 31 23 24 49 43 44 47 48 40 40 34 28 23 21 20 20 15 9 6 3 3 4 6 9 11 12 3
26 29 28 25 24 25 25 22 17 20 26 27 29 33 27 30 27 13 14 34 19 28 36 39 34 33 29 29 24 17 13 11 9 10 8 5 3 4 6 11 12 13 15
21 23 21 21 23 23 22 21 23 26 29 29 25 29 23 27 22 20 12 30 13 18 16 25 28 27 29 26 20 17 12 11 9 6 6 4 4 6 9 13 16 20 24
19 21 22 23 24 23 23 25 26 28 30 25 24 19 20 29 27 19 13 23 16 25 24 26 27 27 23 21 21 17 13 9 7 4 4 6 6 8 13 20 19 16 7
28 29 30 31 34 36 36 34 30 28 29 25 25 20 22 22 29 29 27 25 17 16 20 21 21 19 28 24 23 21 17 12 6 4 4 6 10 17 16 19 21 18 11
31 33 33 31 31 27 29 32 28 26 25 26 27 17 17 18 20 26 33 31 21 10 16 20 21 21 20 21 19 18 13 9 8 7 9 13 19 18 18 17 20 20 18
31 30 30 29 29 26 29 27 23 23 23 22 23 18 16 18 19 20 33 34 29 21 19 16 18 21 20 20 20 16 13 12 10 10 11 16 21 20 17 15 8 12 14
30 30 30 29 27 28 23 21 19 18 19 16 16 14 14 17 19 21 23 26 29 28 22 18 17 19 22 24 24 20 19 16 12 12 14 21 24 19 18 17 18 21 16
29 29 28 27 26 24 23 22 19 18 11 14 13 11 11 15 9 11 13 19 32 31 23 19 11 16 27 31 27 24 23 20 18 17 18 24 25 22 19 15 17 18 16
27 25 24 23 23 23 20 19 14 15 16 16 13 12 12 6 9 9 9 12 18 28 24 20 12 7 7 13 20 23 21 18 19 19 23 26 29 24 16 12 14 13 10
25 23 20 20 20 19 18 19 22 24 18 20 16 8 7 1 3 8 14 4 9 18 15 15 13 12 13 12 12 13 16 20 22 23 24 28 27 16 11 12 11 9 3
24 23 20 19 19 17 16 12 6 12 17 22 26 21 20 10 10 12 10 7 9 9 19 18 14 18 18 19 19 19 21 22 22 26 27 27 19 11 7 8 6 2 6
25 25 22 20 17 18 16 12 13 12 8 10 15 21 24 25 18 10 10 11 10 9 20 22 23 21 25 28 26 23 21 21 17 14 17 17 14 8 6 7 6 7 10
24 21 19 18 17 17 17 14 11 13 13 13 12 12 22 27 21 20 12 9 9 8 17 20 25 21 19 16 14 12 7 8 12 16 19 16 13 10 9 8 9 8 8
22 22 22 18 15 15 14 14 13 13 9 9 8 9 6 21 18 20 18 14 13 10 16 19 22 18 15 11 7 5 8 13 16 23 23 17 13 11 11 11 11 9 7
23 20 19 15 14 14 13 12 12 12 10 4 10 12 9 16 18 20 18 17 17 13 8 16 22 18 14 12 12 14 14 15 20 25 18 15 11 14 13 10 7 6 5
20 18 14 15 13 11 11 12 12 11 11 11 10 5 12 12 9 18 20 20 19 19 11 9 21 17 16 15 12 15 14 17 14 8 10 12 14 12 13 16 9 11 9
20 17 10 14 5 10 11 10 10 10 10 13 12 5 8 10 9 7 13 22 20 21 21 9 13 15 11 9 9 5 5 7 12 8 8 12 14 14 14 7 7 11 24
21 20 17 15 11 8 8 7 8 9 9 10 12 14 10 6 9 12 12 16 27 29 26 20 14 14 12 8 5 8 12 10 9 8 8 11 15 14 12 5 14 22 25
22 21 20 16 8 7 6 6 7 9 9 7 10 9 12 16 11 12 15 12 19 26 25 25 24 18 16 16 15 18 16 15 15 12 10 12 12 9 3 7 26 24 29
25 24 22 22 20 17 8 5 5 7 9 9 11 12 13 14 13 11 12 14 13 17 20 21 20 20 23 25 24 20 16 15 14 14 13 14 12 8 14 26 26 25 27
Wind_Direction
217 237 258 270 291 308 299 305 313 315 317 319 324 322 321 350 345 265 255 248 226 246 243 235 234 221 264 281 279 269 246 219 188 232 239 224 243 240 249 266 281 288 286
226 228 240 264 276 297 312 316 310 307 311 314 313 312 312 306 297 293 322 258 245 216 183 216 250 256 240 244 260 256 237 222 217 207 234 240 254 300 301 290 292 289 283
225 237 250 256 248 262 271 282 298 308 303 304 312 317 312 306 299 296 283 278 313 254 232 230 201 223 241 210 236 238 225 211 209 200 197 260 247 283 311 295 286 292 295
244 241 237 232 245 262 273 281 289 296 301 298 304 309 303 304 307 302 293 264 297 267 236 192 199 213 225 228 227 228 224 215 201 199 196 230 241 215 243 275 292 308 298
286 255 250 256 257 258 261 267 277 286 291 295 300 305 298 293 299 313 311 291 304 243 238 234 215 213 216 223 221 213 202 181 167 174 172 171 195 184 160 298 317 328 316
314 290 281 281 277 269 266 269 278 279 283 290 294 295 293 293 292 307 321 314 271 197 195 205 197 202 196 186 189 186 179 158 157 162 162 170 226 298 320 326 321 315 307
286 284 282 281 275 275 275 275 277 294 299 303 302 292 285 289 282 290 338 303 33 3 157 152 157 177 176 159 159 160 166 167 158 158 161 183 222 287 306 304 302 290 277
309 299 285 284 284 282 282 285 285 290 287 285 292 288 278 277 270 276 253 281 277 169 134 138 145 154 162 162 162 158 160 156 152 179 212 224 281 295 288 286 292 289 285
310 305 304 298 286 278 272 271 276 278 274 272 282 296 287 276 265 249 269 283 278 172 160 156 157 170 164 160 158 165 166 173 169 195 257 283 269 284 300 294 286 284 283
293 289 285 280 276 274 277 274 268 261 261 268 277 283 290 295 265 247 246 260 251 165 173 169 174 179 167 166 170 178 171 183 178 209 248 274 284 297 303 289 285 262 250
298 292 287 287 286 282 277 269 263 250 249 259 266 275 289 298 285 255 241 242 238 188 187 177 176 173 172 176 185 188 195 189 201 227 263 286 295 303 307 301 294 278 247
294 289 288 284 282 278 274 265 265 245 235 250 260 268 277 288 302 270 241 244 241 220 203 194 197 191 192 196 209 209 211 211 220 253 274 284 290 302 306 306 295 305 285
295 291 287 285 284 278 271 267 252 242 225 244 255 261 279 282 292 306 276 254 235 229 206 192 208 217 209 214 218 218 215 216 225 244 263 278 289 303 302 293 298 312 302
290 287 285 281 286 275 273 256 242 231 230 253 256 248 270 277 275 311 297 262 232 227 207 194 196 218 225 224 220 225 228 229 232 243 264 280 290 295 285 287 309 324 316
286 284 285 282 277 274 265 255 256 225 230 233 243 250 241 227 83 30 338 264 244 227 209 196 207 193 176 199 222 230 224 216 230 250 262 273 279 287 277 296 328 333 301
285 282 276 279 273 272 265 256 246 240 236 239 236 238 257 327 34 29 357 228 216 216 195 185 185 188 190 187 184 195 205 214 232 248 261 268 271 266 267 318 332 336 293
284 284 277 273 277 265 272 261 246 227 235 244 247 245 253 252 269 286 310 300 279 215 211 210 209 197 201 207 206 212 215 220 242 251 263 271 266 228 277 312 314 332 156
289 286 275 260 258 271 257 261 244 232 219 223 242 243 244 253 244 257 265 314 352 205 192 200 205 204 208 214 221 219 229 234 245 264 283 279 211 221 261 280 265 244 212
288 280 273 268 243 248 260 234 242 243 241 233 235 245 230 233 221 236 248 256 287 246 204 194 185 186 190 192 197 200 222 260 276 282 287 238 207 227 245 245 258 245 190
292 279 267 259 251 234 243 229 226 253 219 208 227 228 200 198 190 199 216 225 235 250 210 197 186 198 166 157 171 222 260 269 274 278 267 233 227 234 251 252 244 227 194
298 287 268 251 240 228 226 217 214 214 231 261 217 204 173 170 173 183 200 211 231 237 231 196 170 169 179 203 234 251 250 268 275 280 244 228 233 243 257 245 241 240 241
301 290 274 247 224 210 206 199 198 206 213 212 231 160 197 205 178 177 190 199 214 228 216 218 189 186 198 204 220 244 242 263 281 269 242 242 253 262 261 252 234 265 263
348 350 350 354 194 168 178 190 184 196 206 198 207 201 119 159 188 217 178 189 197 222 222 212 174 170 165 173 195 228 273 314 274 252 269 273 274 264 261 268 280 160 152
5 10 20 39 85 118 145 165 179 193 197 199 190 202 203 193 195 205 206 187 195 205 213 212 203 197 198 194 222 254 263 272 292 287 291 291 289 279 265 233 142 141 138
15 16 19 23 59 88 132 140 155 169 179 202 171 182 196 206 215 199 198 202 192 194 199 208 217 213 208 224 242 250 257 264 272 290 293 301 289 275 249 170 156 144 142
21 23 21 20 20 26 44 111 142 163 170 184 176 194 203 196 195 196 198 209 206 208 206 207 210 218 230 240 242 246 248 263 270 271 281 283 273 198 162 155 153 144 144